#datetime,building,power
2022-08-11T00:00:00,mnr,9.68
2022-08-11T00:01:00,mnr,9.64
2022-08-11T00:02:00,mnr,10.52
2022-08-11T00:03:00,mnr,10.85
2022-08-11T00:04:00,mnr,10.55
2022-08-11T00:05:00,mnr,10.42
2022-08-11T00:06:00,mnr,9.24
2022-08-11T00:07:00,mnr,9.23
2022-08-11T00:08:00,mnr,9.73
2022-08-11T00:09:00,mnr,9.30
2022-08-11T00:10:00,mnr,8.57
2022-08-11T00:11:00,mnr,9.09
2022-08-11T00:12:00,mnr,9.10
2022-08-11T00:13:00,mnr,9.25
2022-08-11T00:14:00,mnr,9.06
2022-08-11T00:15:00,mnr,9.68
2022-08-11T00:16:00,mnr,8.99
2022-08-11T00:17:00,mnr,9.00
2022-08-11T00:18:00,mnr,8.94
2022-08-11T00:19:00,mnr,9.08
2022-08-11T00:20:00,mnr,8.57
2022-08-11T00:21:00,mnr,8.06
2022-08-11T00:22:00,mnr,8.10
2022-08-11T00:23:00,mnr,8.64
2022-08-11T00:24:00,mnr,8.02
2022-08-11T00:25:00,mnr,7.98
2022-08-11T00:26:00,mnr,7.95
2022-08-11T00:27:00,mnr,8.06
2022-08-11T00:28:00,mnr,7.93
2022-08-11T00:29:00,mnr,8.05
2022-08-11T00:30:00,mnr,8.12
2022-08-11T00:31:00,mnr,7.61
2022-08-11T00:32:00,mnr,9.12
2022-08-11T00:33:00,mnr,8.72
2022-08-11T00:34:00,mnr,8.62
2022-08-11T00:35:00,mnr,8.72
2022-08-11T00:36:00,mnr,9.01
2022-08-11T00:37:00,mnr,9.33
2022-08-11T00:38:00,mnr,8.56
2022-08-11T00:39:00,mnr,8.60
2022-08-11T00:40:00,mnr,8.64
2022-08-11T00:41:00,mnr,8.69
2022-08-11T00:42:00,mnr,8.78
2022-08-11T00:43:00,mnr,7.59
2022-08-11T00:44:00,mnr,6.87
2022-08-11T00:45:00,mnr,6.89
2022-08-11T00:46:00,mnr,7.00
2022-08-11T00:47:00,mnr,7.18
2022-08-11T00:48:00,mnr,6.97
2022-08-11T00:49:00,mnr,6.91
2022-08-11T00:50:00,mnr,6.93
2022-08-11T00:51:00,mnr,6.72
2022-08-11T00:52:00,mnr,6.72
2022-08-11T00:53:00,mnr,6.74
2022-08-11T00:54:00,mnr,6.79
2022-08-11T00:55:00,mnr,7.15
2022-08-11T00:56:00,mnr,6.67
2022-08-11T00:57:00,mnr,7.34
2022-08-11T00:58:00,mnr,6.63
2022-08-11T00:59:00,mnr,6.56
2022-08-11T01:00:00,mnr,6.59
2022-08-11T01:01:00,mnr,6.55
2022-08-11T01:02:00,mnr,6.56
2022-08-11T01:03:00,mnr,6.70
2022-08-11T01:04:00,mnr,6.75
2022-08-11T01:05:00,mnr,6.73
2022-08-11T01:06:00,mnr,6.82
2022-08-11T01:07:00,mnr,6.70
2022-08-11T01:08:00,mnr,6.69
2022-08-11T01:09:00,mnr,6.64
2022-08-11T01:10:00,mnr,6.59
2022-08-11T01:11:00,mnr,6.61
2022-08-11T01:12:00,mnr,6.67
2022-08-11T01:13:00,mnr,6.77
2022-08-11T01:14:00,mnr,8.29
2022-08-11T01:15:00,mnr,7.84
2022-08-11T01:16:00,mnr,7.77
2022-08-11T01:17:00,mnr,7.76
2022-08-11T01:18:00,mnr,7.75
2022-08-11T01:19:00,mnr,7.68
2022-08-11T01:20:00,mnr,8.43
2022-08-11T01:21:00,mnr,7.70
2022-08-11T01:22:00,mnr,7.72
2022-08-11T01:23:00,mnr,7.71
2022-08-11T01:24:00,mnr,6.43
2022-08-11T01:25:00,mnr,6.49
2022-08-11T01:26:00,mnr,6.53
2022-08-11T01:27:00,mnr,6.54
2022-08-11T01:28:00,mnr,6.46
2022-08-11T01:29:00,mnr,6.50
2022-08-11T01:30:00,mnr,6.47
2022-08-11T01:31:00,mnr,6.97
2022-08-11T01:32:00,mnr,6.38
2022-08-11T01:33:00,mnr,6.34
2022-08-11T01:34:00,mnr,6.36
2022-08-11T01:35:00,mnr,6.31
2022-08-11T01:36:00,mnr,6.31
2022-08-11T01:37:00,mnr,6.45
2022-08-11T01:38:00,mnr,6.41
2022-08-11T01:39:00,mnr,6.73
2022-08-11T01:40:00,mnr,6.36
2022-08-11T01:41:00,mnr,6.37
2022-08-11T01:42:00,mnr,6.68
2022-08-11T01:43:00,mnr,6.37
2022-08-11T01:44:00,mnr,6.28
2022-08-11T01:45:00,mnr,6.30
2022-08-11T01:46:00,mnr,6.29
2022-08-11T01:47:00,mnr,6.21
2022-08-11T01:48:00,mnr,6.32
2022-08-11T01:49:00,mnr,6.30
2022-08-11T01:50:00,mnr,6.28
2022-08-11T01:51:00,mnr,6.27
2022-08-11T01:52:00,mnr,6.28
2022-08-11T01:53:00,mnr,6.28
2022-08-11T01:54:00,mnr,6.31
2022-08-11T01:55:00,mnr,6.30
2022-08-11T01:56:00,mnr,6.38
2022-08-11T01:57:00,mnr,6.44
2022-08-11T01:58:00,mnr,6.57
2022-08-11T01:59:00,mnr,6.43
2022-08-11T02:00:00,mnr,6.42
2022-08-11T02:01:00,mnr,6.44
2022-08-11T02:02:00,mnr,6.51
2022-08-11T02:03:00,mnr,6.88
2022-08-11T02:04:00,mnr,6.54
2022-08-11T02:05:00,mnr,6.64
2022-08-11T02:06:00,mnr,6.65
2022-08-11T02:07:00,mnr,7.13
2022-08-11T02:08:00,mnr,6.65
2022-08-11T02:09:00,mnr,7.74
2022-08-11T02:10:00,mnr,6.60
2022-08-11T02:11:00,mnr,6.69
2022-08-11T02:12:00,mnr,6.66
2022-08-11T02:13:00,mnr,6.69
2022-08-11T02:14:00,mnr,6.69
2022-08-11T02:15:00,mnr,6.60
2022-08-11T02:16:00,mnr,6.61
2022-08-11T02:17:00,mnr,6.63
2022-08-11T02:18:00,mnr,6.58
2022-08-11T02:19:00,mnr,6.61
2022-08-11T02:20:00,mnr,6.58
2022-08-11T02:21:00,mnr,6.60
2022-08-11T02:22:00,mnr,6.60
2022-08-11T02:23:00,mnr,6.57
2022-08-11T02:24:00,mnr,6.53
2022-08-11T02:25:00,mnr,6.66
2022-08-11T02:26:00,mnr,6.54
2022-08-11T02:27:00,mnr,6.86
2022-08-11T02:28:00,mnr,6.56
2022-08-11T02:29:00,mnr,6.46
2022-08-11T02:30:00,mnr,6.44
2022-08-11T02:31:00,mnr,6.52
2022-08-11T02:32:00,mnr,6.51
2022-08-11T02:33:00,mnr,6.48
2022-08-11T02:34:00,mnr,6.51
2022-08-11T02:35:00,mnr,6.43
2022-08-11T02:36:00,mnr,6.38
2022-08-11T02:37:00,mnr,6.40
2022-08-11T02:38:00,mnr,6.40
2022-08-11T02:39:00,mnr,6.38
2022-08-11T02:40:00,mnr,6.75
2022-08-11T02:41:00,mnr,6.39
2022-08-11T02:42:00,mnr,7.41
2022-08-11T02:43:00,mnr,6.49
2022-08-11T02:44:00,mnr,6.43
2022-08-11T02:45:00,mnr,6.48
2022-08-11T02:46:00,mnr,6.44
2022-08-11T02:47:00,mnr,6.71
2022-08-11T02:48:00,mnr,6.52
2022-08-11T02:49:00,mnr,6.60
2022-08-11T02:50:00,mnr,6.47
2022-08-11T02:51:00,mnr,7.10
2022-08-11T02:52:00,mnr,6.44
2022-08-11T02:53:00,mnr,6.43
2022-08-11T02:54:00,mnr,6.47
2022-08-11T02:55:00,mnr,6.49
2022-08-11T02:56:00,mnr,6.50
2022-08-11T02:57:00,mnr,6.59
2022-08-11T02:58:00,mnr,6.52
2022-08-11T02:59:00,mnr,6.46
2022-08-11T03:00:00,mnr,6.67
2022-08-11T03:01:00,mnr,6.51
2022-08-11T03:02:00,mnr,6.42
2022-08-11T03:03:00,mnr,6.47
2022-08-11T03:04:00,mnr,6.42
2022-08-11T03:05:00,mnr,6.42
2022-08-11T03:06:00,mnr,6.41
2022-08-11T03:07:00,mnr,6.49
2022-08-11T03:08:00,mnr,6.45
2022-08-11T03:09:00,mnr,6.42
2022-08-11T03:10:00,mnr,6.43
2022-08-11T03:11:00,mnr,6.35
2022-08-11T03:12:00,mnr,6.39
2022-08-11T03:13:00,mnr,6.42
2022-08-11T03:14:00,mnr,6.43
2022-08-11T03:15:00,mnr,6.33
2022-08-11T03:16:00,mnr,6.37
2022-08-11T03:17:00,mnr,6.45
2022-08-11T03:18:00,mnr,7.11
2022-08-11T03:19:00,mnr,6.49
2022-08-11T03:20:00,mnr,6.44
2022-08-11T03:21:00,mnr,6.41
2022-08-11T03:22:00,mnr,6.43
2022-08-11T03:23:00,mnr,6.49
2022-08-11T03:24:00,mnr,6.59
2022-08-11T03:25:00,mnr,6.53
2022-08-11T03:26:00,mnr,7.22
2022-08-11T03:27:00,mnr,6.59
2022-08-11T03:28:00,mnr,6.58
2022-08-11T03:29:00,mnr,6.61
2022-08-11T03:30:00,mnr,6.57
2022-08-11T03:31:00,mnr,6.66
2022-08-11T03:32:00,mnr,7.29
2022-08-11T03:33:00,mnr,6.61
2022-08-11T03:34:00,mnr,6.56
2022-08-11T03:35:00,mnr,6.63
2022-08-11T03:36:00,mnr,6.55
2022-08-11T03:37:00,mnr,6.62
2022-08-11T03:38:00,mnr,6.50
2022-08-11T03:39:00,mnr,7.03
2022-08-11T03:40:00,mnr,6.67
2022-08-11T03:41:00,mnr,6.67
2022-08-11T03:42:00,mnr,6.76
2022-08-11T03:43:00,mnr,6.74
2022-08-11T03:44:00,mnr,6.75
2022-08-11T03:45:00,mnr,6.71
2022-08-11T03:46:00,mnr,6.72
2022-08-11T03:47:00,mnr,6.75
2022-08-11T03:48:00,mnr,6.69
2022-08-11T03:49:00,mnr,6.81
2022-08-11T03:50:00,mnr,6.69
2022-08-11T03:51:00,mnr,7.38
2022-08-11T03:52:00,mnr,7.22
2022-08-11T03:53:00,mnr,6.73
2022-08-11T03:54:00,mnr,6.61
2022-08-11T03:55:00,mnr,6.85
2022-08-11T03:56:00,mnr,6.55
2022-08-11T03:57:00,mnr,6.55
2022-08-11T03:58:00,mnr,6.46
2022-08-11T03:59:00,mnr,6.65
2022-08-11T04:00:00,mnr,6.37
2022-08-11T04:01:00,mnr,6.29
2022-08-11T04:02:00,mnr,6.32
2022-08-11T04:03:00,mnr,6.38
2022-08-11T04:04:00,mnr,6.32
2022-08-11T04:05:00,mnr,6.35
2022-08-11T04:06:00,mnr,6.35
2022-08-11T04:07:00,mnr,7.01
2022-08-11T04:08:00,mnr,6.38
2022-08-11T04:09:00,mnr,6.72
2022-08-11T04:10:00,mnr,6.38
2022-08-11T04:11:00,mnr,6.81
2022-08-11T04:12:00,mnr,6.35
2022-08-11T04:13:00,mnr,6.36
2022-08-11T04:14:00,mnr,6.35
2022-08-11T04:15:00,mnr,6.38
2022-08-11T04:16:00,mnr,6.33
2022-08-11T04:17:00,mnr,6.63
2022-08-11T04:18:00,mnr,6.35
2022-08-11T04:19:00,mnr,6.33
2022-08-11T04:20:00,mnr,6.28
2022-08-11T04:21:00,mnr,7.03
2022-08-11T04:22:00,mnr,6.67
2022-08-11T04:23:00,mnr,6.35
2022-08-11T04:24:00,mnr,7.07
2022-08-11T04:25:00,mnr,6.48
2022-08-11T04:26:00,mnr,6.45
2022-08-11T04:27:00,mnr,6.45
2022-08-11T04:28:00,mnr,6.64
2022-08-11T04:29:00,mnr,6.47
2022-08-11T04:30:00,mnr,6.48
2022-08-11T04:31:00,mnr,6.42
2022-08-11T04:32:00,mnr,6.95
2022-08-11T04:33:00,mnr,6.48
2022-08-11T04:34:00,mnr,6.40
2022-08-11T04:35:00,mnr,6.42
2022-08-11T04:36:00,mnr,6.43
2022-08-11T04:37:00,mnr,6.42
2022-08-11T04:38:00,mnr,6.37
2022-08-11T04:39:00,mnr,6.38
2022-08-11T04:40:00,mnr,6.34
2022-08-11T04:41:00,mnr,6.37
2022-08-11T04:42:00,mnr,6.37
2022-08-11T04:43:00,mnr,6.40
2022-08-11T04:44:00,mnr,6.39
2022-08-11T04:45:00,mnr,6.65
2022-08-11T04:46:00,mnr,6.49
2022-08-11T04:47:00,mnr,6.40
2022-08-11T04:48:00,mnr,6.55
2022-08-11T04:49:00,mnr,6.67
2022-08-11T04:50:00,mnr,6.50
2022-08-11T04:51:00,mnr,7.20
2022-08-11T04:52:00,mnr,6.59
2022-08-11T04:53:00,mnr,6.56
2022-08-11T04:54:00,mnr,6.63
2022-08-11T04:55:00,mnr,6.97
2022-08-11T04:56:00,mnr,6.70
2022-08-11T04:57:00,mnr,6.65
2022-08-11T04:58:00,mnr,7.15
2022-08-11T04:59:00,mnr,6.83
2022-08-11T05:00:00,mnr,6.62
2022-08-11T05:01:00,mnr,6.93
2022-08-11T05:02:00,mnr,8.17
2022-08-11T05:03:00,mnr,9.07
2022-08-11T05:04:00,mnr,10.00
2022-08-11T05:05:00,mnr,10.30
2022-08-11T05:06:00,mnr,10.71
2022-08-11T05:07:00,mnr,10.20
2022-08-11T05:08:00,mnr,10.50
2022-08-11T05:09:00,mnr,10.22
2022-08-11T05:10:00,mnr,10.17
2022-08-11T05:11:00,mnr,10.15
2022-08-11T05:12:00,mnr,10.24
2022-08-11T05:13:00,mnr,10.06
2022-08-11T05:14:00,mnr,10.07
2022-08-11T05:15:00,mnr,10.66
2022-08-11T05:16:00,mnr,10.05
2022-08-11T05:17:00,mnr,10.11
2022-08-11T05:18:00,mnr,10.37
2022-08-11T05:19:00,mnr,10.04
2022-08-11T05:20:00,mnr,10.03
2022-08-11T05:21:00,mnr,9.95
2022-08-11T05:22:00,mnr,9.93
2022-08-11T05:23:00,mnr,10.63
2022-08-11T05:24:00,mnr,10.04
2022-08-11T05:25:00,mnr,9.90
2022-08-11T05:26:00,mnr,10.47
2022-08-11T05:27:00,mnr,10.81
2022-08-11T05:28:00,mnr,10.82
2022-08-11T05:29:00,mnr,10.86
2022-08-11T05:30:00,mnr,11.91
2022-08-11T05:31:00,mnr,11.72
2022-08-11T05:32:00,mnr,11.71
2022-08-11T05:33:00,mnr,11.77
2022-08-11T05:34:00,mnr,11.75
2022-08-11T05:35:00,mnr,11.82
2022-08-11T05:36:00,mnr,11.73
2022-08-11T05:37:00,mnr,11.72
2022-08-11T05:38:00,mnr,11.71
2022-08-11T05:39:00,mnr,11.69
2022-08-11T05:40:00,mnr,12.41
2022-08-11T05:41:00,mnr,12.44
2022-08-11T05:42:00,mnr,12.88
2022-08-11T05:43:00,mnr,12.41
2022-08-11T05:44:00,mnr,12.45
2022-08-11T05:45:00,mnr,13.14
2022-08-11T05:46:00,mnr,13.45
2022-08-11T05:47:00,mnr,13.29
2022-08-11T05:48:00,mnr,13.98
2022-08-11T05:49:00,mnr,13.51
2022-08-11T05:50:00,mnr,13.70
2022-08-11T05:51:00,mnr,13.37
2022-08-11T05:52:00,mnr,13.39
2022-08-11T05:53:00,mnr,13.30
2022-08-11T05:54:00,mnr,13.61
2022-08-11T05:55:00,mnr,13.30
2022-08-11T05:56:00,mnr,13.32
2022-08-11T05:57:00,mnr,13.40
2022-08-11T05:58:00,mnr,13.38
2022-08-11T05:59:00,mnr,14.04
2022-08-11T06:00:00,mnr,13.34
2022-08-11T06:01:00,mnr,13.44
2022-08-11T06:02:00,mnr,13.68
2022-08-11T06:03:00,mnr,13.57
2022-08-11T06:04:00,mnr,12.87
2022-08-11T06:05:00,mnr,13.02
2022-08-11T06:06:00,mnr,12.81
2022-08-11T06:07:00,mnr,12.81
2022-08-11T06:08:00,mnr,12.85
2022-08-11T06:09:00,mnr,12.91
2022-08-11T06:10:00,mnr,13.29
2022-08-11T06:11:00,mnr,12.87
2022-08-11T06:12:00,mnr,13.73
2022-08-11T06:13:00,mnr,13.69
2022-08-11T06:14:00,mnr,14.55
2022-08-11T06:15:00,mnr,13.88
2022-08-11T06:16:00,mnr,15.60
2022-08-11T06:17:00,mnr,13.93
2022-08-11T06:18:00,mnr,13.87
2022-08-11T06:19:00,mnr,13.87
2022-08-11T06:20:00,mnr,13.87
2022-08-11T06:21:00,mnr,13.84
2022-08-11T06:22:00,mnr,13.21
2022-08-11T06:23:00,mnr,13.11
2022-08-11T06:24:00,mnr,13.11
2022-08-11T06:25:00,mnr,13.54
2022-08-11T06:26:00,mnr,13.02
2022-08-11T06:27:00,mnr,12.47
2022-08-11T06:28:00,mnr,8.54
2022-08-11T06:29:00,mnr,12.90
2022-08-11T06:30:00,mnr,12.51
2022-08-11T06:31:00,mnr,12.52
2022-08-11T06:32:00,mnr,12.55
2022-08-11T06:33:00,mnr,12.55
2022-08-11T06:34:00,mnr,12.31
2022-08-11T06:35:00,mnr,11.76
2022-08-11T06:36:00,mnr,11.78
2022-08-11T06:37:00,mnr,11.84
2022-08-11T06:38:00,mnr,12.50
2022-08-11T06:39:00,mnr,11.70
2022-08-11T06:40:00,mnr,11.72
2022-08-11T06:41:00,mnr,11.77
2022-08-11T06:42:00,mnr,11.76
2022-08-11T06:43:00,mnr,11.66
2022-08-11T06:44:00,mnr,11.65
2022-08-11T06:45:00,mnr,11.06
2022-08-11T06:46:00,mnr,11.06
2022-08-11T06:47:00,mnr,11.08
2022-08-11T06:48:00,mnr,10.72
2022-08-11T06:49:00,mnr,10.74
2022-08-11T06:50:00,mnr,10.71
2022-08-11T06:51:00,mnr,10.67
2022-08-11T06:52:00,mnr,10.67
2022-08-11T06:53:00,mnr,10.74
2022-08-11T06:54:00,mnr,10.79
2022-08-11T06:55:00,mnr,10.73
2022-08-11T06:56:00,mnr,10.73
2022-08-11T06:57:00,mnr,10.74
2022-08-11T06:58:00,mnr,10.79
2022-08-11T06:59:00,mnr,10.76
2022-08-11T07:00:00,mnr,11.35
2022-08-11T07:01:00,mnr,10.73
2022-08-11T07:02:00,mnr,10.73
2022-08-11T07:03:00,mnr,10.92
2022-08-11T07:04:00,mnr,10.76
2022-08-11T07:05:00,mnr,10.92
2022-08-11T07:06:00,mnr,10.44
2022-08-11T07:07:00,mnr,10.21
2022-08-11T07:08:00,mnr,10.46
2022-08-11T07:09:00,mnr,10.14
2022-08-11T07:10:00,mnr,10.15
2022-08-11T07:11:00,mnr,10.18
2022-08-11T07:12:00,mnr,10.12
2022-08-11T07:13:00,mnr,10.10
2022-08-11T07:14:00,mnr,10.85
2022-08-11T07:15:00,mnr,10.79
2022-08-11T07:16:00,mnr,10.15
2022-08-11T07:17:00,mnr,10.12
2022-08-11T07:18:00,mnr,10.21
2022-08-11T07:19:00,mnr,10.26
2022-08-11T07:20:00,mnr,10.26
2022-08-11T07:21:00,mnr,10.18
2022-08-11T07:22:00,mnr,11.94
2022-08-11T07:23:00,mnr,12.33
2022-08-11T07:24:00,mnr,12.28
2022-08-11T07:25:00,mnr,12.33
2022-08-11T07:26:00,mnr,12.29
2022-08-11T07:27:00,mnr,12.25
2022-08-11T07:28:00,mnr,12.41
2022-08-11T07:29:00,mnr,11.59
2022-08-11T07:30:00,mnr,12.26
2022-08-11T07:31:00,mnr,12.23
2022-08-11T07:32:00,mnr,12.89
2022-08-11T07:33:00,mnr,12.24
2022-08-11T07:34:00,mnr,12.34
2022-08-11T07:35:00,mnr,12.43
2022-08-11T07:36:00,mnr,12.39
2022-08-11T07:37:00,mnr,12.28
2022-08-11T07:38:00,mnr,11.70
2022-08-11T07:39:00,mnr,11.65
2022-08-11T07:40:00,mnr,12.54
2022-08-11T07:41:00,mnr,12.28
2022-08-11T07:42:00,mnr,13.82
2022-08-11T07:43:00,mnr,13.09
2022-08-11T07:44:00,mnr,13.05
2022-08-11T07:45:00,mnr,12.93
2022-08-11T07:46:00,mnr,23.69
2022-08-11T07:47:00,mnr,15.29
2022-08-11T07:48:00,mnr,14.48
2022-08-11T07:49:00,mnr,14.18
2022-08-11T07:50:00,mnr,14.18
2022-08-11T07:51:00,mnr,14.57
2022-08-11T07:52:00,mnr,14.05
2022-08-11T07:53:00,mnr,14.17
2022-08-11T07:54:00,mnr,14.22
2022-08-11T07:55:00,mnr,14.65
2022-08-11T07:56:00,mnr,14.85
2022-08-11T07:57:00,mnr,14.59
2022-08-11T07:58:00,mnr,14.68
2022-08-11T07:59:00,mnr,11.69
2022-08-11T08:00:00,mnr,15.61
2022-08-11T08:01:00,mnr,15.67
2022-08-11T08:02:00,mnr,24.54
2022-08-11T08:03:00,mnr,18.33
2022-08-11T08:04:00,mnr,17.94
2022-08-11T08:05:00,mnr,18.49
2022-08-11T08:06:00,mnr,17.86
2022-08-11T08:07:00,mnr,18.70
2022-08-11T08:08:00,mnr,18.06
2022-08-11T08:09:00,mnr,18.22
2022-08-11T08:10:00,mnr,18.96
2022-08-11T08:11:00,mnr,18.05
2022-08-11T08:12:00,mnr,17.87
2022-08-11T08:13:00,mnr,17.40
2022-08-11T08:14:00,mnr,16.52
2022-08-11T08:15:00,mnr,16.67
2022-08-11T08:16:00,mnr,17.25
2022-08-11T08:17:00,mnr,16.92
2022-08-11T08:18:00,mnr,16.71
2022-08-11T08:19:00,mnr,16.63
2022-08-11T08:20:00,mnr,16.62
2022-08-11T08:21:00,mnr,16.36
2022-08-11T08:22:00,mnr,16.33
2022-08-11T08:23:00,mnr,18.24
2022-08-11T08:24:00,mnr,16.39
2022-08-11T08:25:00,mnr,16.36
2022-08-11T08:26:00,mnr,15.81
2022-08-11T08:27:00,mnr,15.73
2022-08-11T08:28:00,mnr,15.78
2022-08-11T08:29:00,mnr,16.46
2022-08-11T08:30:00,mnr,15.75
2022-08-11T08:31:00,mnr,15.94
2022-08-11T08:32:00,mnr,16.43
2022-08-11T08:33:00,mnr,17.67
2022-08-11T08:34:00,mnr,17.40
2022-08-11T08:35:00,mnr,17.37
2022-08-11T08:36:00,mnr,17.12
2022-08-11T08:37:00,mnr,17.82
2022-08-11T08:38:00,mnr,17.39
2022-08-11T08:39:00,mnr,17.46
2022-08-11T08:40:00,mnr,17.34
2022-08-11T08:41:00,mnr,17.07
2022-08-11T08:42:00,mnr,16.95
2022-08-11T08:43:00,mnr,17.10
2022-08-11T08:44:00,mnr,17.47
2022-08-11T08:45:00,mnr,17.98
2022-08-11T08:46:00,mnr,17.12
2022-08-11T08:47:00,mnr,17.24
2022-08-11T08:48:00,mnr,17.28
2022-08-11T08:49:00,mnr,17.73
2022-08-11T08:50:00,mnr,18.01
2022-08-11T08:51:00,mnr,18.47
2022-08-11T08:52:00,mnr,18.53
2022-08-11T08:53:00,mnr,19.46
2022-08-11T08:54:00,mnr,17.35
2022-08-11T08:55:00,mnr,18.90
2022-08-11T08:56:00,mnr,18.75
2022-08-11T08:57:00,mnr,18.51
2022-08-11T08:58:00,mnr,19.47
2022-08-11T08:59:00,mnr,20.08
2022-08-11T09:00:00,mnr,20.45
2022-08-11T09:01:00,mnr,20.34
2022-08-11T09:02:00,mnr,22.09
2022-08-11T09:03:00,mnr,20.68
2022-08-11T09:04:00,mnr,20.25
2022-08-11T09:05:00,mnr,20.13
2022-08-11T09:06:00,mnr,20.83
2022-08-11T09:07:00,mnr,21.35
2022-08-11T09:08:00,mnr,20.02
2022-08-11T09:09:00,mnr,20.03
2022-08-11T09:10:00,mnr,20.33
2022-08-11T09:11:00,mnr,19.98
2022-08-11T09:12:00,mnr,19.91
2022-08-11T09:13:00,mnr,20.50
2022-08-11T09:14:00,mnr,22.68
2022-08-11T09:15:00,mnr,20.52
2022-08-11T09:16:00,mnr,20.45
2022-08-11T09:17:00,mnr,19.75
2022-08-11T09:18:00,mnr,19.82
2022-08-11T09:19:00,mnr,18.86
2022-08-11T09:20:00,mnr,20.61
2022-08-11T09:21:00,mnr,20.46
2022-08-11T09:22:00,mnr,20.80
2022-08-11T09:23:00,mnr,20.69
2022-08-11T09:24:00,mnr,20.78
2022-08-11T09:25:00,mnr,20.77
2022-08-11T09:26:00,mnr,17.35
2022-08-11T09:27:00,mnr,21.27
2022-08-11T09:28:00,mnr,21.12
2022-08-11T09:29:00,mnr,21.80
2022-08-11T09:30:00,mnr,21.75
2022-08-11T09:31:00,mnr,22.29
2022-08-11T09:32:00,mnr,24.95
2022-08-11T09:33:00,mnr,22.88
2022-08-11T09:34:00,mnr,22.49
2022-08-11T09:35:00,mnr,24.03
2022-08-11T09:36:00,mnr,21.96
2022-08-11T09:37:00,mnr,22.50
2022-08-11T09:38:00,mnr,22.29
2022-08-11T09:39:00,mnr,21.43
2022-08-11T09:40:00,mnr,21.25
2022-08-11T09:41:00,mnr,21.10
2022-08-11T09:42:00,mnr,21.05
2022-08-11T09:43:00,mnr,20.19
2022-08-11T09:44:00,mnr,19.97
2022-08-11T09:45:00,mnr,19.74
2022-08-11T09:46:00,mnr,19.60
2022-08-11T09:47:00,mnr,19.96
2022-08-11T09:48:00,mnr,18.93
2022-08-11T09:49:00,mnr,19.02
2022-08-11T09:50:00,mnr,18.30
2022-08-11T09:51:00,mnr,18.89
2022-08-11T09:52:00,mnr,18.17
2022-08-11T09:53:00,mnr,18.10
2022-08-11T09:54:00,mnr,18.39
2022-08-11T09:55:00,mnr,19.06
2022-08-11T09:56:00,mnr,18.71
2022-08-11T09:57:00,mnr,18.74
2022-08-11T09:58:00,mnr,18.35
2022-08-11T09:59:00,mnr,18.38
2022-08-11T10:00:00,mnr,19.08
2022-08-11T10:01:00,mnr,18.41
2022-08-11T10:02:00,mnr,18.95
2022-08-11T10:03:00,mnr,19.53
2022-08-11T10:04:00,mnr,18.39
2022-08-11T10:05:00,mnr,17.68
2022-08-11T10:06:00,mnr,17.78
2022-08-11T10:07:00,mnr,17.90
2022-08-11T10:08:00,mnr,17.71
2022-08-11T10:09:00,mnr,17.81
2022-08-11T10:10:00,mnr,17.78
2022-08-11T10:11:00,mnr,18.21
2022-08-11T10:12:00,mnr,17.66
2022-08-11T10:13:00,mnr,18.65
2022-08-11T10:14:00,mnr,18.91
2022-08-11T10:15:00,mnr,17.66
2022-08-11T10:16:00,mnr,17.94
2022-08-11T10:17:00,mnr,21.50
2022-08-11T10:18:00,mnr,22.09
2022-08-11T10:19:00,mnr,25.91
2022-08-11T10:20:00,mnr,25.44
2022-08-11T10:21:00,mnr,28.29
2022-08-11T10:22:00,mnr,29.89
2022-08-11T10:23:00,mnr,32.87
2022-08-11T10:24:00,mnr,22.96
2022-08-11T10:25:00,mnr,19.13
2022-08-11T10:26:00,mnr,18.99
2022-08-11T10:27:00,mnr,17.61
2022-08-11T10:28:00,mnr,17.96
2022-08-11T10:29:00,mnr,17.89
2022-08-11T10:30:00,mnr,17.33
2022-08-11T10:31:00,mnr,17.31
2022-08-11T10:32:00,mnr,17.09
2022-08-11T10:33:00,mnr,17.33
2022-08-11T10:34:00,mnr,17.28
2022-08-11T10:35:00,mnr,17.72
2022-08-11T10:36:00,mnr,19.63
2022-08-11T10:37:00,mnr,19.25
2022-08-11T10:38:00,mnr,18.85
2022-08-11T10:39:00,mnr,19.96
2022-08-11T10:40:00,mnr,18.61
2022-08-11T10:41:00,mnr,18.88
2022-08-11T10:42:00,mnr,18.89
2022-08-11T10:43:00,mnr,18.95
2022-08-11T10:44:00,mnr,19.80
2022-08-11T10:45:00,mnr,19.09
2022-08-11T10:46:00,mnr,20.55
2022-08-11T10:47:00,mnr,23.15
2022-08-11T10:48:00,mnr,26.25
2022-08-11T10:49:00,mnr,29.96
2022-08-11T10:50:00,mnr,31.41
2022-08-11T10:51:00,mnr,31.34
2022-08-11T10:52:00,mnr,31.29
2022-08-11T10:53:00,mnr,27.07
2022-08-11T10:54:00,mnr,19.53
2022-08-11T10:55:00,mnr,18.91
2022-08-11T10:56:00,mnr,20.04
2022-08-11T10:57:00,mnr,18.87
2022-08-11T10:58:00,mnr,28.32
2022-08-11T10:59:00,mnr,18.95
2022-08-11T11:00:00,mnr,19.23
2022-08-11T11:01:00,mnr,19.14
2022-08-11T11:02:00,mnr,20.19
2022-08-11T11:03:00,mnr,19.73
2022-08-11T11:04:00,mnr,19.48
2022-08-11T11:05:00,mnr,19.78
2022-08-11T11:06:00,mnr,18.61
2022-08-11T11:07:00,mnr,19.37
2022-08-11T11:08:00,mnr,19.91
2022-08-11T11:09:00,mnr,20.47
2022-08-11T11:10:00,mnr,20.63
2022-08-11T11:11:00,mnr,20.27
2022-08-11T11:12:00,mnr,20.51
2022-08-11T11:13:00,mnr,20.47
2022-08-11T11:14:00,mnr,20.53
2022-08-11T11:15:00,mnr,21.56
2022-08-11T11:16:00,mnr,20.92
2022-08-11T11:17:00,mnr,20.58
2022-08-11T11:18:00,mnr,19.00
2022-08-11T11:19:00,mnr,18.85
2022-08-11T11:20:00,mnr,17.15
2022-08-11T11:21:00,mnr,17.35
2022-08-11T11:22:00,mnr,17.23
2022-08-11T11:23:00,mnr,16.98
2022-08-11T11:24:00,mnr,17.19
2022-08-11T11:25:00,mnr,17.17
2022-08-11T11:26:00,mnr,17.33
2022-08-11T11:27:00,mnr,18.30
2022-08-11T11:28:00,mnr,18.41
2022-08-11T11:29:00,mnr,18.22
2022-08-11T11:30:00,mnr,18.31
2022-08-11T11:31:00,mnr,18.25
2022-08-11T11:32:00,mnr,18.04
2022-08-11T11:33:00,mnr,18.27
2022-08-11T11:34:00,mnr,18.11
2022-08-11T11:35:00,mnr,18.15
2022-08-11T11:36:00,mnr,20.26
2022-08-11T11:37:00,mnr,19.94
2022-08-11T11:38:00,mnr,19.08
2022-08-11T11:39:00,mnr,19.03
2022-08-11T11:40:00,mnr,19.03
2022-08-11T11:41:00,mnr,19.63
2022-08-11T11:42:00,mnr,19.90
2022-08-11T11:43:00,mnr,19.83
2022-08-11T11:44:00,mnr,19.66
2022-08-11T11:45:00,mnr,19.60
2022-08-11T11:46:00,mnr,19.58
2022-08-11T11:47:00,mnr,19.85
2022-08-11T11:48:00,mnr,20.29
2022-08-11T11:49:00,mnr,20.34
2022-08-11T11:50:00,mnr,19.86
2022-08-11T11:51:00,mnr,20.42
2022-08-11T11:52:00,mnr,20.42
2022-08-11T11:53:00,mnr,22.36
2022-08-11T11:54:00,mnr,20.98
2022-08-11T11:55:00,mnr,20.46
2022-08-11T11:56:00,mnr,20.53
2022-08-11T11:57:00,mnr,19.84
2022-08-11T11:58:00,mnr,20.14
2022-08-11T11:59:00,mnr,18.89
2022-08-11T12:00:00,mnr,19.83
2022-08-11T12:01:00,mnr,19.69
2022-08-11T12:02:00,mnr,19.88
2022-08-11T12:03:00,mnr,20.02
2022-08-11T12:04:00,mnr,19.18
2022-08-11T12:05:00,mnr,19.28
2022-08-11T12:06:00,mnr,19.52
2022-08-11T12:07:00,mnr,19.49
2022-08-11T12:08:00,mnr,19.37
2022-08-11T12:09:00,mnr,18.96
2022-08-11T12:10:00,mnr,18.59
2022-08-11T12:11:00,mnr,18.68
2022-08-11T12:12:00,mnr,18.96
2022-08-11T12:13:00,mnr,19.32
2022-08-11T12:14:00,mnr,20.10
2022-08-11T12:15:00,mnr,19.47
2022-08-11T12:16:00,mnr,19.83
2022-08-11T12:17:00,mnr,21.26
2022-08-11T12:18:00,mnr,19.03
2022-08-11T12:19:00,mnr,19.09
2022-08-11T12:20:00,mnr,18.32
2022-08-11T12:21:00,mnr,19.10
2022-08-11T12:22:00,mnr,20.68
2022-08-11T12:23:00,mnr,20.41
2022-08-11T12:24:00,mnr,20.24
2022-08-11T12:25:00,mnr,20.18
2022-08-11T12:26:00,mnr,20.23
2022-08-11T12:27:00,mnr,20.16
2022-08-11T12:28:00,mnr,20.12
2022-08-11T12:29:00,mnr,20.19
2022-08-11T12:30:00,mnr,20.35
2022-08-11T12:31:00,mnr,20.55
2022-08-11T12:32:00,mnr,20.28
2022-08-11T12:33:00,mnr,19.80
2022-08-11T12:34:00,mnr,19.86
2022-08-11T12:35:00,mnr,19.70
2022-08-11T12:36:00,mnr,18.45
2022-08-11T12:37:00,mnr,18.21
2022-08-11T12:38:00,mnr,20.38
2022-08-11T12:39:00,mnr,17.67
2022-08-11T12:40:00,mnr,17.63
2022-08-11T12:41:00,mnr,17.47
2022-08-11T12:42:00,mnr,16.96
2022-08-11T12:43:00,mnr,16.97
2022-08-11T12:44:00,mnr,17.58
2022-08-11T12:45:00,mnr,16.74
2022-08-11T12:46:00,mnr,16.35
2022-08-11T12:47:00,mnr,16.98
2022-08-11T12:48:00,mnr,17.89
2022-08-11T12:49:00,mnr,17.29
2022-08-11T12:50:00,mnr,17.37
2022-08-11T12:51:00,mnr,17.28
2022-08-11T12:52:00,mnr,17.92
2022-08-11T12:53:00,mnr,17.73
2022-08-11T12:54:00,mnr,17.76
2022-08-11T12:55:00,mnr,17.07
2022-08-11T12:56:00,mnr,19.24
2022-08-11T12:57:00,mnr,17.79
2022-08-11T12:58:00,mnr,17.03
2022-08-11T12:59:00,mnr,20.82
2022-08-11T13:00:00,mnr,20.47
2022-08-11T13:01:00,mnr,22.23
2022-08-11T13:02:00,mnr,23.82
2022-08-11T13:03:00,mnr,25.22
2022-08-11T13:04:00,mnr,26.44
2022-08-11T13:05:00,mnr,28.53
2022-08-11T13:06:00,mnr,29.16
2022-08-11T13:07:00,mnr,21.07
2022-08-11T13:08:00,mnr,16.73
2022-08-11T13:09:00,mnr,16.68
2022-08-11T13:10:00,mnr,16.79
2022-08-11T13:11:00,mnr,16.40
2022-08-11T13:12:00,mnr,16.39
2022-08-11T13:13:00,mnr,15.50
2022-08-11T13:14:00,mnr,15.56
2022-08-11T13:15:00,mnr,15.55
2022-08-11T13:16:00,mnr,15.23
2022-08-11T13:17:00,mnr,15.19
2022-08-11T13:18:00,mnr,15.18
2022-08-11T13:19:00,mnr,16.07
2022-08-11T13:20:00,mnr,16.03
2022-08-11T13:21:00,mnr,16.41
2022-08-11T13:22:00,mnr,16.70
2022-08-11T13:23:00,mnr,17.38
2022-08-11T13:24:00,mnr,17.64
2022-08-11T13:25:00,mnr,16.66
2022-08-11T13:26:00,mnr,16.43
2022-08-11T13:27:00,mnr,17.39
2022-08-11T13:28:00,mnr,16.55